Home   Weather   Saint John's   Past weeks

Flag for Antigua and Barbuda Past Weather in Saint John's, Antigua and Barbuda — Yesterday and Last 2 Weeks

Now
82 °F

Partly sunny.


Feels Like: 87 °F
Forecast: 77 / 81 °F
Wind: 12 mph from Southeast

Location: Vc Bird International Antigua Airport

Current Time: Apr 25, 2017 at 12:46:22 pm

Latest Report: Apr 25, 2017 at 12:00 pm


Visibility: N/A

Pressure: 29.98 "Hg

Humidity: 70%

Dew Point: 72 °F

Location of Saint John'sLocation

Past Weather in Saint John's — Graph

°F

Saint John's Temperature Yesterday

Maximum temperature yesterday: 84 °F (at 11:00 am)
Minimum temperature yesterday: 75 °F (at 9:00 pm)
Average temperature yesterday: 79 °F

High & Low Weather Summary for the Past Weeks

 TemperatureHumidityPressure
High84 °F (Apr 24, 11:00 am)89% (Apr 24, 9:00 pm)30.04 "Hg (Apr 24, 9:00 pm)
Low75 °F (Apr 19, 3:00 am)55% (Apr 19, 2:00 pm)29.89 "Hg (Apr 21, 4:00 am)
Average78 °F70%29.97 "Hg
* Reported Apr 19 3:00 am — Apr 25 11:00 am, Saint John's, Weather by CustomWeather, © 2017

Note: Actual official high and low records may vary slightly from our data, if they occured in-between our weather recording intervals... More about our weather records

Advertising

Saint John's Weather History for the Previous 24 Hours

Scroll right to see more
 ConditionsComfort  
Time TempWeatherWind HumidityBarometerVisibility
11:00 am
Tue, Apr 25
82 °FPartly sunny.12 mph62%30.01 "HgN/A
10:00 am81 °FPartly sunny.13 mph70%30.01 "HgN/A
9:00 am81 °FBroken clouds.10 mph70%30.01 "HgN/A
8:00 am79 °FPartly sunny.10 mph79%29.98 "HgN/A
7:00 am77 °FPartly sunny.10 mph79%29.98 "HgN/A
5:00 am77 °FPassing clouds.13 mph83%29.95 "HgN/A
4:00 am79 °FPartly cloudy.12 mph74%29.92 "HgN/A
3:00 am77 °FPartly cloudy.10 mph79%29.92 "HgN/A
2:00 am77 °FPassing clouds.10 mph83%29.92 "HgN/A
1:00 am77 °FScattered showers. Passing clouds.12 mph83%29.95 "HgN/A
12:00 am77 °FScattered showers. Passing clouds.14 mph83%29.95 "HgN/A
11:00 pm
Mon, Apr 24
77 °FScattered showers. Passing clouds.13 mph89%29.98 "HgN/A
10:00 pm77 °FScattered showers. Partly cloudy.10 mph89%29.95 "HgN/A
9:00 pm75 °FLight rain. Passing clouds.8 mph89%29.98 "HgN/A
8:00 pm79 °FScattered showers. Passing clouds.13 mph79%29.95 "HgN/A
7:00 pm79 °FPassing clouds.12 mph79%29.95 "HgN/A
6:00 pm79 °FPartly sunny.12 mph84%29.92 "HgN/A
5:00 pm81 °FScattered clouds.13 mph79%29.92 "HgN/A
4:00 pm79 °FPartly sunny.14 mph84%29.92 "HgN/A
3:00 pm81 °FScattered clouds.15 mph79%29.95 "HgN/A
2:00 pm82 °FScattered clouds.13 mph74%29.95 "HgN/A
1:00 pm82 °FScattered clouds.13 mph70%29.98 "HgN/A
12:00 pm84 °FScattered clouds.14 mph66%30.01 "HgN/A
Weather by CustomWeather, © 2017

See weather overviewHow to use our weather pages